Aérodrome :
LOGIN :

S'inscrire | Disclaimer

   EN    FR    IT 

 










Légende :    VFR   VFR Marginal   IFR   IFR Intensif   IFR Très Intensif
Visi : 
Plafond : 
>= 8 km
>= 3000ft
5 à 8 km
1000 à 3000 ft
1500m à 5 km
500 à 1000 ft
800 à 1500m
200 à 500 ft
< 800m
< 200 ft
Symboles :   Orages  Brouillard  Fortes neiges  Fortes précipitations  Vent > 20 kt
SIGMETs :   Divers  Orages  Givrage  Turbulence  Onde Orograph.  Cendres Volcan.






- Altitude de l'aérodrome : 7 ft
- Code IATA : POW


LJPZ - Portoroz

DERNIER METAR :
  • 311800Z 22006KT 190V250 CAVOK 30/20 Q1007

METARs EXPIRÉS :
  • 311700Z 34001KT CAVOK 30/22 Q1006
  • 311630Z 32005KT CAVOK 30/22 Q1006
  • 311600Z 30003KT 260V010 CAVOK 31/21 Q1007
  • 311530Z 32005KT 290V350 9999 FEW050 31/22 Q1007

TAF TAF LJPZ
Valide du 31 à 18h jusqu'au 01 à 03h UTC


311700Z 3118/0103 30005KT CAVOK



MET'MAP, la Météo Aéronautique d'un coup d'oeil ! - Copyright ORBIFLY Décembre 2007 - Disclaimer

ORBIFLY MET'MAP TEAM :

Programmation & Développement : Alexandra Zaïnal
Sur une idée originale de : Baudouin d'Aumeries
Assistance à la programmation : Marc-Olivier Méhu
Soutien technique & logistique : Manuel Goepfert

Contact : metmap@orbifly.com




SOURCES & CREDITS :

   NOAA